Tracking 31027 objects as of 19-Jul-2025
HD Live streaming from Space Station
objects crossing your sky now

ONEWEB-0687

Track ONEWEB-0687 now!
10-day predictions
ONEWEB-0687 is classified as:


NORAD ID: 61595
Int'l Code: 2024-188B
Perigee: 1,200.0 km
Apogee: 1,201.7 km
Inclination: 87.9 °
Period: 109.3 minutes
Semi major axis: 7571 km
RCS: Unknown
Launch date: October 20, 2024
Source: United States (US)
Launch site: AIR FORCE WESTERN TEST RANGE (AFWTR)
Your satellite tracking list
FENGYUN 1C DEB
Track 1 satellite(s)




NASA's NSSDC Master Catalog

Two Line Element Set (TLE):
1 61595U 24188B   25199.64324608  .00000030  00000-0  45062-4 0  9992
2 61595  87.9052  72.3086 0001178  75.0039 285.1223 13.17651378 41972
Source of the keplerian elements: AFSPC